| time (UTC) | temp F | wind direction | speed MPH | gust MPH | rain 1hr in | rain 24hr in | rain mn in | humidity % | barometer mb |
| 20260903200003 | 82 | 318 | 2.0 | 5.0 | 0.00 | 1.08 | 0.38 | 74 | 1013.5 |
| 20260903195005 | 82 | 48 | 2.0 | 4.0 | 0.00 | 1.08 | 0.38 | 73 | 1013.6 |
| 20260903194005 | 83 | 273 | 3.0 | 7.0 | 0.00 | 1.08 | 0.38 | 72 | 1013.9 |
| 20260903191005 | 84 | 228 | 6.0 | 9.0 | 0.00 | 1.08 | 0.38 | 66 | 1014.0 |
| 20260903190006 | 83 | 205 | 5.0 | 7.0 | 0.00 | 1.08 | 0.38 | 68 | 1014.2 |
| 20260903185007 | 84 | 228 | 9.0 | 12.0 | 0.00 | 1.08 | 0.38 | 66 | 1014.2 |
| 20260903184002 | 84 | 250 | 6.0 | 10.0 | 0.00 | 1.08 | 0.38 | 67 | 1014.2 |
| 20260903182007 | 84 | 3 | 6.0 | 11.0 | 0.00 | 1.08 | 0.38 | 66 | 1014.2 |
| 20260903181002 | 84 | 273 | 6.0 | 12.0 | 0.00 | 1.08 | 0.38 | 65 | 1014.2 |
| 20260903180003 | 83 | 273 | 6.0 | 10.0 | 0.00 | 1.08 | 0.38 | 66 | 1014.2 |
| 20260903175004 | 83 | 250 | 11.0 | 15.0 | 0.00 | 1.08 | 0.38 | 66 | 1014.2 |
| 20260903174005 | 84 | 250 | 5.0 | 10.0 | 0.00 | 1.08 | 0.38 | 65 | 1014.2 |
| 20260903172005 | 85 | 318 | 4.0 | 8.0 | 0.00 | 1.08 | 0.38 | 65 | 1014.4 |
| 20260903171006 | 84 | 273 | 6.0 | 10.0 | 0.00 | 1.08 | 0.38 | 65 | 1014.3 |
| 20260903170007 | 85 | 295 | 9.0 | 14.0 | 0.00 | 1.08 | 0.38 | 64 | 1014.3 |
| 20260903165007 | 85 | 273 | 8.0 | 16.0 | 0.00 | 1.08 | 0.38 | 66 | 1014.4 |
| 20260903164002 | 83 | 228 | 12.0 | 16.0 | 0.00 | 1.08 | 0.38 | 67 | 1014.4 |
| 20260903163003 | 82 | 273 | 3.0 | 7.0 | 0.00 | 1.08 | 0.38 | 69 | 1014.4 |
| 20260903162004 | 82 | 228 | 11.0 | 16.0 | 0.00 | 1.08 | 0.38 | 68 | 1014.5 |
| 20260903160004 | 82 | 228 | 9.0 | 14.0 | 0.00 | 1.08 | 0.38 | 69 | 1014.7 |
| 20260903155005 | 82 | 228 | 6.0 | 10.0 | 0.00 | 1.08 | 0.38 | 68 | 1014.8 |
| 20260903154006 | 81 | 295 | 9.0 | 16.0 | 0.00 | 1.08 | 0.38 | 68 | 1014.8 |
| 20260903153007 | 80 | 228 | 10.0 | 13.0 | 0.00 | 1.08 | 0.38 | 69 | 1015.0 |
| 20260903152007 | 80 | 250 | 8.0 | 11.0 | 0.00 | 1.08 | 0.38 | 70 | 1014.9 |
| 20260903151007 | 79 | 228 | 8.0 | 11.0 | 0.00 | 1.09 | 0.38 | 71 | 1014.9 |
| 20260903150002 | 79 | 295 | 5.0 | 7.0 | 0.00 | 1.10 | 0.38 | 72 | 1014.9 |
| 20260903141006 | 77 | 228 | 4.0 | 6.0 | 0.00 | 1.15 | 0.38 | 78 | 1015.1 |
| 20260903140000 | 76 | 250 | 5.0 | 11.0 | 0.00 | 1.15 | 0.38 | 78 | 1015.0 |
| 20260903135001 | 75 | 228 | 7.0 | 9.0 | 0.00 | 1.15 | 0.38 | 81 | 1015.1 |
| 20260903134002 | 75 | 228 | 4.0 | 6.0 | 0.00 | 1.16 | 0.38 | 83 | 1015.2 |
| 20260903132001 | 74 | 205 | 1.0 | 3.0 | 0.00 | 1.25 | 0.38 | 89 | 1015.6 |
| 20260903131002 | 73 | 205 | 2.0 | 5.0 | 0.00 | 1.25 | 0.38 | 92 | 1015.6 |
| 20260903130003 | 73 | 250 | 2.0 | 7.0 | 0.00 | 1.25 | 0.38 | 95 | 1015.7 |
| 20260903125003 | 71 | 228 | 2.0 | 4.0 | 0.00 | 1.25 | 0.38 | 96 | 1015.7 |
| 20260903124003 | 70 | 228 | 4.0 | 7.0 | 0.00 | 1.27 | 0.38 | 97 | 1015.7 |
| 20260903123004 | 70 | 228 | 3.0 | 5.0 | 0.00 | 1.27 | 0.38 | 98 | 1015.9 |
| 20260903121004 | 68 | 183 | 3.0 | 4.0 | 0.00 | 1.29 | 0.38 | 98 | 1015.7 |
| 20260903120002 | 67 | 115 | 2.0 | 3.0 | 0.00 | 1.30 | 0.38 | 98 | 1015.7 |
| 20260903115002 | 67 | 183 | 1.0 | 2.0 | 0.00 | 1.32 | 0.38 | 98 | 1015.8 |
| 20260903114022 | 67 | 250 | 1.0 | 3.0 | 0.00 | 1.34 | 0.38 | 98 | 1015.8 |
| 20260903111002 | 66 | 228 | 3.0 | 4.0 | 0.00 | 1.36 | 0.38 | 98 | 1015.9 |
| 20260903110003 | 66 | 228 | 3.0 | 3.0 | 0.00 | 1.36 | 0.38 | 98 | 1015.6 |
| 20260903105003 | 66 | 70 | 2.0 | 3.0 | 0.00 | 1.36 | 0.38 | 98 | 1015.1 |
| 20260903104003 | 66 | 318 | 0.0 | 1.0 | 0.00 | 1.36 | 0.38 | 98 | 1014.8 |
| 20260903103004 | 66 | 48 | 2.0 | 3.0 | 0.00 | 1.36 | 0.38 | 98 | 1014.6 |
| 20260903102004 | 66 | 340 | 2.0 | 3.0 | 0.00 | 1.36 | 0.38 | 98 | 1014.5 |
| 20260903101004 | 66 | 273 | 1.0 | 1.0 | 0.00 | 1.36 | 0.38 | 98 | 1014.4 |
| 20260903100005 | 66 | 318 | 0.0 | 1.0 | 0.00 | 1.36 | 0.38 | 97 | 1014.2 |
| 20260903095005 | 66 | 93 | 1.0 | 3.0 | 0.00 | 1.36 | 0.38 | 97 | 1014.2 |
| 20260903094005 | 66 | 48 | 2.0 | 3.0 | 0.00 | 1.36 | 0.38 | 97 | 1014.1 |
| 20260903093006 | 66 | 70 | 2.0 | 3.0 | 0.00 | 1.36 | 0.38 | 97 | 1014.0 |
| 20260903092006 | 66 | 93 | 2.0 | 3.0 | 0.00 | 1.36 | 0.38 | 97 | 1014.1 |
| 20260903091001 | 66 | 115 | 1.0 | 1.0 | 0.00 | 1.36 | 0.38 | 97 | 1014.1 |
| 20260903090001 | 66 | 70 | 1.0 | 2.0 | 0.00 | 1.36 | 0.38 | 97 | 1014.3 |
| 20260903085002 | 66 | 25 | 2.0 | 2.0 | 0.00 | 1.36 | 0.38 | 97 | 1014.2 |
| 20260903084003 | 67 | 160 | 2.0 | 3.0 | 0.00 | 1.36 | 0.38 | 97 | 1014.2 |
| 20260903083003 | 66 | 228 | 1.0 | 2.0 | 0.00 | 1.36 | 0.38 | 97 | 1014.5 |
| 20260903082003 | 67 | 93 | 1.0 | 2.0 | 0.00 | 1.36 | 0.38 | 97 | 1014.7 |
| 20260903081003 | 67 | 70 | 2.0 | 3.0 | 0.00 | 1.36 | 0.38 | 97 | 1014.8 |
| 20260903080003 | 67 | 228 | 2.0 | 4.0 | 0.00 | 1.36 | 0.38 | 96 | 1014.6 |
| 20260903075004 | 67 | 205 | 3.0 | 4.0 | 0.00 | 1.36 | 0.38 | 96 | 1014.2 |
| 20260903074004 | 67 | 138 | 4.0 | 4.0 | 0.00 | 1.36 | 0.38 | 96 | 1013.8 |
| 20260903073005 | 67 | 70 | 3.0 | 4.0 | 0.00 | 1.36 | 0.38 | 96 | 1013.8 |
| 20260903072006 | 67 | 48 | 2.0 | 3.0 | 0.00 | 1.35 | 0.37 | 96 | 1014.0 |
| 20260903071006 | 67 | 205 | 5.0 | 7.0 | 0.00 | 1.35 | 0.37 | 96 | 1014.5 |
| 20260903070006 | 67 | 160 | 1.0 | 2.0 | 0.00 | 1.35 | 0.37 | 96 | 1014.2 |
| 20260903065006 | 67 | 3 | 3.0 | 4.0 | 0.00 | 1.35 | 0.37 | 95 | 1014.1 |
| 20260903064001 | 67 | 93 | 2.0 | 2.0 | 0.00 | 1.34 | 0.36 | 95 | 1013.9 |
| 20260903063002 | 67 | 250 | 5.0 | 8.0 | 0.00 | 1.33 | 0.35 | 95 | 1014.1 |
| 20260903062001 | 67 | 250 | 5.0 | 11.0 | 0.00 | 1.32 | 0.34 | 95 | 1014.5 |
| 20260903061002 | 67 | 228 | 3.0 | 7.0 | 0.00 | 1.31 | 0.33 | 95 | 1015.3 |
| 20260903060003 | 67 | 250 | 7.0 | 11.0 | 0.00 | 1.31 | 0.33 | 96 | 1015.4 |
| 20260903055004 | 66 | 250 | 2.0 | 6.0 | 0.00 | 1.31 | 0.33 | 96 | 1015.6 |
| 20260903054005 | 66 | 93 | 2.0 | 3.0 | 0.00 | 1.30 | 0.32 | 95 | 1014.6 |
| 20260903053006 | 66 | 250 | 5.0 | 9.0 | 0.00 | 1.30 | 0.32 | 95 | 1015.2 |
| 20260903051006 | 66 | 295 | 2.0 | 5.0 | 0.00 | 1.30 | 0.32 | 96 | 1015.2 |
| 20260903050006 | 66 | 250 | 7.0 | 11.0 | 0.00 | 1.30 | 0.32 | 96 | 1015.1 |
| 20260903045001 | 66 | 228 | 6.0 | 8.0 | 0.00 | 1.30 | 0.32 | 96 | 1014.9 |
| 20260903044002 | 67 | 138 | 7.0 | 9.0 | 0.00 | 1.30 | 0.32 | 96 | 1014.8 |
| 20260903043004 | 67 | 160 | 4.0 | 7.0 | 0.00 | 1.29 | 0.31 | 96 | 1015.0 |
| 20260903042004 | 67 | 228 | 9.0 | 13.0 | 0.00 | 1.23 | 0.25 | 96 | 1014.7 |
| 20260903041005 | 67 | 205 | 5.0 | 7.0 | 0.00 | 0.98 | 0.00 | 96 | 1015.2 |
| 20260903040008 | 67 | 3 | 0.0 | 1.0 | 0.00 | 0.98 | 0.00 | 94 | 1014.5 |
| 20260903034004 | 67 | 93 | 2.0 | 3.0 | 0.00 | 0.98 | 0.98 | 93 | 1013.9 |
| 20260903032003 | 67 | 138 | 3.0 | 4.0 | 0.00 | 0.98 | 0.98 | 92 | 1013.6 |
| 20260903031005 | 67 | 228 | 9.0 | 12.0 | 0.00 | 0.97 | 0.97 | 92 | 1014.2 |
| 20260903030005 | 67 | 228 | 8.0 | 12.0 | 0.00 | 0.97 | 0.97 | 91 | 1013.7 |
| 20260903024005 | 67 | 250 | 14.0 | 26.0 | 0.00 | 0.76 | 0.76 | 89 | 1017.3 |
| 20260903023006 | 70 | 250 | 15.0 | 26.0 | 0.00 | 0.44 | 0.44 | 87 | 1015.8 |
| 20260903022007 | 72 | 250 | 13.0 | 18.0 | 0.00 | 0.29 | 0.29 | 86 | 1015.5 |
| 20260903021002 | 72 | 228 | 2.0 | 4.0 | 0.00 | 0.28 | 0.28 | 83 | 1014.7 |
| 20260903020003 | 72 | 183 | 2.0 | 3.0 | 0.00 | 0.28 | 0.28 | 84 | 1014.7 |
| 20260903015004 | 72 | 318 | 1.0 | 2.0 | 0.00 | 0.28 | 0.28 | 83 | 1014.1 |
| 20260903014005 | 72 | 205 | 2.0 | 3.0 | 0.00 | 0.28 | 0.28 | 82 | 1014.4 |
| 20260903013007 | 72 | 205 | 0.0 | 0.0 | 0.00 | 0.28 | 0.28 | 82 | 1014.6 |
| 20260903011006 | 73 | 318 | 1.0 | 2.0 | 0.00 | 0.28 | 0.28 | 79 | 1015.2 |
| 20260903010008 | 74 | 318 | 1.0 | 3.0 | 0.00 | 0.28 | 0.28 | 78 | 1015.4 |
| 20260903005002 | 74 | 70 | 2.0 | 3.0 | 0.00 | 0.28 | 0.28 | 76 | 1014.9 |
| 20260903003003 | 76 | 295 | 2.0 | 4.0 | 0.00 | 0.28 | 0.28 | 71 | 1014.6 |
| 20260903002004 | 78 | 318 | 5.0 | 13.0 | 0.00 | 0.28 | 0.28 | 69 | 1014.6 |
| 20260903001005 | 81 | 318 | 7.0 | 22.0 | 0.00 | 0.28 | 0.28 | 66 | 1014.2 |
| 20260903000005 | 81 | 228 | 17.0 | 25.0 | 0.00 | 0.28 | 0.28 | 65 | 1012.0 |
| 20260902235006 | 82 | 228 | 13.0 | 17.0 | 0.00 | 0.28 | 0.28 | 65 | 1012.4 |
| 20260902234007 | 83 | 250 | 10.0 | 17.0 | 0.00 | 0.28 | 0.28 | 66 | 1013.1 |
| 20260902232003 | 84 | 228 | 11.0 | 14.0 | 0.00 | 0.28 | 0.28 | 70 | 1014.1 |
| 20260902231004 | 85 | 228 | 6.0 | 8.0 | 0.00 | 0.28 | 0.28 | 70 | 1013.9 |
| 20260902230006 | 85 | 205 | 8.0 | 11.0 | 0.00 | 0.28 | 0.28 | 69 | 1013.5 |
| 20260902225007 | 85 | 228 | 9.0 | 12.0 | 0.00 | 0.28 | 0.28 | 69 | 1013.7 |
| 20260902224001 | 86 | 228 | 5.0 | 10.0 | 0.00 | 0.28 | 0.28 | 69 | 1013.6 |
| 20260902223002 | 86 | 228 | 4.0 | 7.0 | 0.00 | 0.28 | 0.28 | 68 | 1013.7 |
| 20260902222002 | 87 | 273 | 4.0 | 8.0 | 0.00 | 0.28 | 0.28 | 67 | 1013.6 |
| 20260902221004 | 87 | 205 | 3.0 | 4.0 | 0.00 | 0.28 | 0.28 | 67 | 1013.2 |
| 20260902220004 | 87 | 228 | 8.0 | 14.0 | 0.00 | 0.28 | 0.28 | 66 | 1013.1 |
| 20260902214005 | 88 | 228 | 8.0 | 11.0 | 0.00 | 0.28 | 0.28 | 65 | 1013.3 |
| 20260902213006 | 88 | 205 | 5.0 | 10.0 | 0.00 | 0.28 | 0.28 | 65 | 1013.6 |
| 20260902212007 | 89 | 205 | 3.0 | 6.0 | 0.00 | 0.28 | 0.28 | 65 | 1013.5 |
| 20260902211002 | 88 | 250 | 8.0 | 12.0 | 0.00 | 0.28 | 0.28 | 65 | 1013.4 |
| 20260902210003 | 88 | 250 | 5.0 | 7.0 | 0.00 | 0.28 | 0.28 | 65 | 1013.6 |
| 20260902205004 | 88 | 273 | 9.0 | 14.0 | 0.00 | 0.28 | 0.28 | 64 | 1013.9 |
| 20260902204004 | 88 | 250 | 8.0 | 12.0 | 0.00 | 0.28 | 0.28 | 63 | 1014.2 |
| 20260902203005 | 88 | 250 | 8.0 | 13.0 | 0.00 | 0.28 | 0.28 | 66 | 1014.4 |
| 20260902201006 | 88 | 250 | 6.0 | 13.0 | 0.00 | 0.28 | 0.28 | 66 | 1014.7 |